SCP
0 -0 -0 -0 -0 0 -0 -0 0 0 0 0 -0 -0 -0 -0 0 0 0 0 -0 -0 0 0 0 0 0 0 0 0 0 0 0 0 -0 -0 -0 0 0 0 0 0 0 0 0 0 0 0 0 0 0 0 0 0
0 0 -0 -0 -0 -0 0 0 0 0 0 0 0 -0 -0 -0 0 0 0 -0 0 0 -0 0 0 -0 0 0 0 0 0 0 0 0 0 0 0 0 0 0 0 0 0 0 0 0 0 0 0 0 0 0 0 0
0 0 0 -0 -0 -0 0 0 0 0 0 -0 -0 -0 -0 -0 0 0 -0 0 -0 -0 -0 -0 0 -0 0 0 0 0 0 0 0 0 0 0 0 0 0 0 0 0 0 0 0 0 0 0 0 0 0 0 0 0
-0 0 0 0 -0 -0 -0 0 0 0 0 0 -0 -0 -0 -0 0 -0 -0 0 -0 -0 -0 -0 -0 -0 -0 -0 -0 0 0 0 0 0 0 0 0 0 0 0 0 0 0 0 0 0 0 0 0 0 0 0 0 0
-0 -0 0 0 0 0 -0 -0 0 0 0 0 0 0 0 0 0 -0 -0 -0 0 0 0 0 -0 -0 0 0 0 -0 0 0 0 0 0 0 0 0 0 0 0 0 0 0 0 0 0 0 0 0 0 0 0 0
-0 -0 -0 0 0 -0 -0 -0 0 0 0 0 0 0 0 0 -0 -0 -0 0 0 0 0 -0 0 -0 -0 0 0 0 0 0 0 0 0 0 0 0 0 0 0 0 0 0 0 0 0 0 0 0 0 0 0 0
-0 -0 -0 -0 0 -0 -0 -0 0 0 0 0 -0 -0 -0 -0 0 0 0 -0 0 0 0 0 0 0 0 0 0 0 0 0 0 0 0 0 0 0 0 0 0 0 0 0 0 0 0 0 0 0 0 0 0 0
0 -0 -0 -0 -0 -0 -0 -0 -0 0 0 0 0 0 -0 -0 -0 0 0 -0 0 0 0 0 0 0 0 0 0 0 0 0 0 0 0 0 0 0 0 0 0 0 0 0 0 0 0 0 0 0 0 0 0 0
-0 -0 -0 -0 -0 -0 -0 -0 -0 -0 0 0 0 0 0 0 0 0 0 0 0 0 0 0 0 0 0 0 0 0 0 0 0 0 0 0 0 0 0 0 0 0 0 0 0 0 0 0 0 0 0 0 0 0
-0 -0 -0 -0 -0 -0 -0 -0 -0 -0 0 0 -0 0 0 0 0 0 0 0 0 0 0 0 0 0 0 0 0 0 0 0 0 0 0 0 0 0 0 0 0 0 0 0 0 0 0 0 0 0 0 0 0 0
-0 -0 -0 -0 0 -0 -0 -0 -0 -0 0 0 0 0 0 0 0 0 0 0 0 0 0 0 0 0 0 0 0 0 0 0 0 0 0 0 0 0 0 0 0 0 0 0 0 0 0 0 0 0 0 0 0 0
-0 -0 -0 -0 0 -0 -0 -0 -0 0 0 0 0 0 0 0 0 0 0 0 0 0 0 0 0 0 0 0 0 0 0 0 0 0 0 0 0 0 0 0 0 0 0 0 0 0 0 0 0 0 0 0 0 0
-0 -0 -0 -0 0 -0 -0 -0 0 0 0 0 0 0 0 0 0 0 0 0 0 0 0 0 0 0 0 0 0 0 0 0 0 0 0 0 0 0 0 0 0 0 0 0 0 0 0 0 0 0 0 0 0 0
-0 -0 -0 0 -0 -0 -0 0 0 0 0 0 0 0 0 0 0 0 0 0 0 0 0 0 0 0 0 0 0 0 0 0 0 0 0 0 0 0 0 0 0 0 0 0 0 0 0 0 0 0 0 0 0 0
-0 -0 0 0 -0 -0 0 0 0 0 0 0 0 0 0 0 0 0 0 0 0 0 0 0 0 0 0 0 0 0 0 0 0 0 0 0 0 0 0 0 0 0 0 0 0 0 0 0 0 0 0 0 0 0
-0 0 0 -0 -0 -0 0 0 0 0 0 0 0 0 0 0 0 0 0 0 0 0 0 0 0 0 0 0 0 0 0 0 0 0 0 0 0 0 0 0 0 0 0 0 0 0 0 0 0 0 0 0 0 0
0 0 0 -0 -0 0 0 0 0 0 0 0 0 0 0 0 0 0 0 0 0 0 0 0 0 0 0 0 0 0 0 0 0 0 0 0 0 0 0 0 0 0 0 0 0 0 0 0 0 0 0 0 0 0
0 0 0 0 0 0 0 0 0 0 0 0 0 0 0 0 0 0 0 0 0 0 0 0 0 0 0 0 0 0 0 0 0 0 0 0 0 0 0 0 0 0 0 0 0 0 0 0 0 0 0 0 0 0
0 0 0 0 0 0 0 0 0 0 0 0 0 0 0 0 0 0 0 0 0 0 0 0 0 0 0 0 0 0 0 0 0 0 0 0 0 0 0 0 0 0 0 0 0 0 0 0 0 0 0 0 0 0
0 0 0 0 0 0 0 0 0 0 0 0 0 0 0 0 0 0 0 0 0 0 0 0 0 0 0 0 0 0 0 0 0 0 0 0 0 0 0 0 0 0 0 0 0 0 0 0 0 0 0 0 0 0
0 0 0 0 0 0 0 0 0 0 0 0 0 0 0 0 0 0 0 0 0 0 0 0 0 0 0 0 0 0 0 0 0 0 0 0 0 0 0 0 0 0 0 0 0 0 0 0 0 0 0 0 0 0
0 0 0 0 0 0 0 0 0 0 0 0 0 0 0 0 0 0 0 0 0 0 0 0 0 0 0 0 0 0 0 0 0 0 0 0 0 0 0 0 0 0 0 0 0 0 0 0 0 0 0 0 0 0
0 0 0 0 0 0 0 0 0 0 0 0 0 0 0 0 0 0 0 0 0 0 0 0 0 0 0 0 0 0 0 0 0 0 0 0 0 0 0 0 0 0 0 0 0 0 0 0 0 0 0 0 0 0
0 0 0 0 0 0 0 0 0 0 0 0 0 0 0 0 0 0 0 0 0 0 0 0 0 0 0 0 0 0 0 0 0 0 0 0 0 0 0 0 0 0 0 0 0 0 0 0 0 0 0 0 0 0
0 0 0 0 0 0 0 0 0 0 0 0 0 0 0 0 0 0 0 0 0 0 0 0 0 0 0 0 0 0 0 0 0 0 0 0 0 0 0 0 0 0 0 0 0 0 0 0 0 0 0 0 0 0
0 0 0 0 0 0 0 0 0 0 0 0 0 0 0 0 0 0 0 0 0 0 0 0 0 0 0 0 0 0 0 0 0 0 0 0 0 0 0 0 0 0 0 0 0 0 0 0 0 0 0 0 0 0
0 0 0 0 0 0 0 0 0 0 0 0 0 0 0 0 0 0 0 0 0 0 0 0 0 0 0 0 0 0 0 0 0 0 0 0 0 0 0 0 0 0 0 0 0 0 0 0 0 0 0 0 0 0
0 0 0 0 0 0 0 0 0 0 0 0 0 0 0 0 0 0 0 0 0 0 0 -0 -0 0 0 0 0 0 0 0 0 0 0 0 0 0 0 0 0 0 0 0 0 0 0 0 0 0 0 0 0 0
0 0 0 0 0 0 0 0 0 0 0 0 0 0 0 0 0 0 0 0 0 0 0 0 0 0 0 0 0 0 0 0 0 0 0 0 0 0 0 0 0 0 0 0 0 0 0 0 0 0 0 0 0 0
0 0 0 0 0 0 0 0 0 0 0 0 0 0 0 0 0 0 0 0 0 0 0 0 0 0 0 0 0 0 0 0 0 0 0 0 0 0 0 0 0 0 0 0 0 0 0 0 0 0 0 0 0 0
0 0 0 0 0 0 0 0 0 0 0 0 0 0 0 0 0 0 0 0 0 0 0 0 0 0 0 0 0 0 0 0 0 0 0 0 0 0 0 0 0 0 0 0 0 0 0 0 0 0 0 0 0 0
0 0 0 0 0 0 0 0 0 0 0 0 0 0 0 0 0 0 0 0 0 0 0 0 0 0 0 0 0 0 0 0 0 0 0 0 0 0 0 0 0 0 0 0 0 0 0 0 0 0 0 0 0 0
0 0 0 0 0 0 0 0 0 0 0 0 0 0 0 0 0 0 0 0 0 0 0 0 0 0 0 0 0 0 0 0 0 0 0 0 0 0 0 0 0 0 0 0 0 0 0 0 0 0 0 0 0 0
Wind_Speed_500mb
68 73 75 80 85 90 79 75 61 46 24 23 32 62 75 76 61 42 37 27 7 2 14 9 9 8 6 4 4 12 14 7 7 9 6 7 4 11 7 8 16 23 18 15 5 7 16 7 9 19 7 11 27 37
63 68 72 74 82 80 72 79 64 50 24 23 25 60 63 64 51 34 26 19 12 8 14 17 8 4 2 5 10 29 8 10 17 6 4 6 6 6 0 4 7 2 10 14 12 9 5 3 10 5 13 31 30 38
58 62 68 68 74 73 71 70 64 60 43 43 43 43 51 47 44 24 8 7 8 12 9 6 10 12 10 21 18 9 10 11 8 10 7 4 11 2 8 7 4 4 6 7 8 4 5 8 13 18 28 35 40 46
52 56 59 64 64 60 48 56 53 50 45 39 38 39 39 30 26 12 17 16 11 12 3 5 10 4 16 17 13 5 6 6 19 13 4 5 5 2 2 2 6 3 8 11 5 5 9 10 22 36 40 45 49 46
46 49 51 55 58 59 47 36 35 36 30 30 30 30 28 28 19 11 16 23 23 12 5 11 12 15 17 11 5 1 6 7 7 5 4 4 3 3 2 4 4 10 11 10 10 31 8 17 60 55 59 53 51 53
45 43 44 46 49 52 42 32 22 17 20 18 16 14 16 14 14 13 9 7 15 13 8 5 5 7 7 7 6 6 5 7 8 9 4 5 3 4 4 6 2 6 10 4 5 41 4 49 59 47 61 63 55 49
46 43 39 39 41 43 48 25 22 17 13 10 16 18 21 20 18 14 9 12 26 10 7 7 7 3 8 5 5 8 11 8 8 8 6 2 4 8 3 5 8 20 20 25 36 42 35 42 26 48 47 48 52 54
43 44 39 35 35 37 37 39 14 13 17 22 16 14 22 24 28 23 28 20 9 9 6 3 7 8 9 7 5 9 5 6 14 7 4 4 4 4 7 1 21 27 32 44 46 16 20 47 49 52 52 53 50 48
39 43 43 36 31 31 32 31 30 18 17 18 23 26 12 9 8 8 11 11 6 11 5 5 7 6 12 9 5 6 9 4 5 4 1 5 3 9 14 17 48 55 41 38 31 20 41 51 68 62 57 55 48 45
39 39 43 40 34 28 26 28 27 25 22 27 31 7 7 7 8 12 8 2 3 4 6 4 1 3 5 4 1 3 5 3 0 4 4 2 8 15 19 22 41 58 43 50 51 40 53 62 69 64 61 52 43 40
39 38 40 40 41 34 24 25 26 25 18 10 6 6 11 7 5 5 4 10 13 8 11 8 9 4 16 6 3 5 1 2 1 6 6 4 7 8 20 33 44 55 39 52 44 43 52 61 64 58 52 46 40 35
36 37 38 39 41 40 29 27 26 24 13 11 13 13 7 4 2 8 3 7 5 6 4 1 3 3 6 6 2 1 2 2 7 3 3 7 8 9 32 40 45 46 44 51 30 37 44 47 48 49 47 45 40 34
35 37 37 38 36 42 35 29 28 26 23 12 7 5 2 3 7 9 7 7 4 6 3 2 1 3 3 4 4 3 3 3 2 4 7 10 4 22 38 46 48 39 40 38 37 40 44 47 44 40 40 37 33 29
35 34 37 37 33 41 40 33 27 24 11 6 6 7 6 6 8 8 7 7 5 4 5 2 5 3 3 3 2 4 0 1 4 4 12 6 13 36 47 52 57 51 45 41 40 45 46 45 43 39 35 32 28 25
38 34 34 24 38 42 40 38 28 19 7 7 5 7 7 2 4 6 8 5 8 12 7 4 3 2 4 5 2 4 1 7 10 9 6 7 13 41 56 55 54 52 51 47 45 46 44 41 39 37 34 28 27 26
44 31 16 32 40 41 41 41 26 10 8 7 7 7 4 3 4 10 18 11 20 16 9 3 4 7 5 6 4 12 9 10 7 6 11 14 21 45 57 55 50 46 45 47 46 45 43 42 38 33 31 29 27 22
50 17 39 40 40 42 42 31 9 9 10 8 4 10 13 5 2 6 17 20 30 18 5 5 6 16 3 5 6 8 10 7 9 16 18 16 27 42 48 46 46 45 46 47 47 45 41 40 39 36 33 28 25 22
48 45 47 45 39 37 27 6 8 7 6 7 6 10 10 7 8 9 13 26 20 12 12 8 12 5 11 10 8 8 28 27 26 19 13 22 32 39 45 48 49 49 50 49 46 44 44 42 38 32 28 26 23 23
49 50 51 43 28 18 8 6 7 5 4 4 5 12 7 5 11 12 18 30 20 9 5 7 4 7 8 10 10 12 19 19 13 16 23 33 40 44 46 47 46 49 50 49 48 44 37 31 26 30 31 27 24 28
43 46 39 41 25 10 9 6 6 5 3 8 7 10 4 3 10 16 19 26 21 8 3 6 11 12 17 14 13 18 21 23 26 22 32 42 46 48 50 50 51 48 49 48 45 42 41 40 36 31 30 30 30 26
44 41 44 39 14 18 11 6 4 1 4 5 7 9 3 8 7 13 15 24 17 14 7 33 39 35 30 28 26 27 29 30 32 33 26 42 47 48 49 50 49 51 52 51 51 49 46 38 26 31 35 33 29 29
44 40 43 22 12 9 7 6 2 2 1 3 10 6 6 4 7 8 12 18 18 25 31 35 47 47 44 44 42 38 34 32 29 35 34 31 44 54 58 60 62 62 61 57 51 47 40 30 31 37 38 31 35 36
37 28 13 12 9 8 4 6 4 3 2 4 3 1 3 2 3 7 10 18 21 26 40 51 53 52 49 45 39 37 36 33 32 37 38 31 29 41 49 53 56 56 55 52 47 44 40 36 40 42 39 39 41 41
24 10 9 7 11 5 6 4 3 4 4 2 2 5 3 3 1 1 7 12 15 23 26 31 36 41 42 44 44 38 36 35 34 38 42 43 38 37 41 46 49 50 48 44 44 44 43 44 44 46 45 43 42 42
8 11 9 9 8 5 3 2 3 2 6 5 3 5 3 1 0 4 7 8 9 17 24 25 21 20 29 31 30 27 30 39 43 45 48 49 45 41 42 44 50 52 51 52 53 53 52 50 50 49 46 46 45 43
8 13 13 9 5 9 10 7 9 12 6 6 9 2 3 4 1 12 7 4 8 16 26 27 30 27 22 20 21 19 25 25 35 48 49 51 51 51 48 46 47 50 52 53 53 53 52 50 49 48 48 46 44 44
10 11 13 12 8 10 4 3 3 4 8 11 7 7 5 3 10 8 6 5 4 10 16 21 27 31 33 31 23 17 21 27 32 36 43 48 47 49 49 48 44 38 37 38 41 44 45 45 45 45 45 44 44 44
22 17 11 17 11 9 7 4 9 12 8 11 16 8 13 15 9 3 6 7 11 18 27 32 39 46 46 42 35 28 24 24 30 36 37 41 45 47 49 50 46 42 40 37 34 35 36 38 40 42 43 43 42 41
9 13 18 5 4 6 12 12 8 7 10 17 7 7 9 10 7 9 21 26 34 39 44 47 44 41 39 38 34 32 30 26 25 30 36 39 37 36 36 38 41 44 45 43 40 37 36 37 39 40 41 42 41 42
13 23 7 7 9 10 6 13 4 6 11 16 12 13 17 25 32 35 41 45 44 36 28 23 23 26 29 30 25 24 27 26 27 29 33 32 27 22 21 24 26 31 37 40 39 38 38 39 39 42 41 41 40 41
15 19 6 8 5 4 6 9 16 21 18 15 25 25 25 23 22 17 13 11 10 9 16 22 24 28 28 28 27 25 21 23 21 24 30 34 34 28 20 17 24 27 29 30 30 30 32 35 37 38 40 41 41 42
12 12 5 4 3 3 7 3 5 5 5 5 6 7 8 8 9 6 10 13 14 22 29 30 30 28 29 29 29 29 28 26 29 28 24 23 28 33 28 18 18 20 20 19 18 18 21 24 28 32 35 37 38 41
8 7 4 1 2 2 4 3 3 4 6 5 6 5 4 4 7 5 12 13 20 25 24 25 25 27 27 27 27 26 26 23 21 20 20 15 17 18 27 28 23 19 16 13 15 18 21 25 29 31 33 35 37 38
Wind_Direction_500mb
358 360 2 4 7 9 6 16 19 25 48 92 136 156 159 166 163 164 160 177 186 268 294 253 282 245 213 193 183 153 131 174 165 176 182 198 185 222 235 177 172 176 172 200 131 146 251 158 115 184 151 104 145 143
1 3 5 7 10 14 20 22 23 30 66 114 130 160 165 171 162 166 184 220 249 336 288 299 306 39 144 280 219 188 183 175 173 134 93 113 254 211 243 205 4 215 205 166 195 202 47 62 53 128 155 147 144 148
359 5 5 9 11 18 27 25 32 45 71 97 124 143 154 171 180 175 197 240 295 305 287 298 316 306 323 327 297 232 201 154 147 116 162 157 239 190 165 214 128 320 327 103 128 181 148 132 115 137 144 139 143 146
359 2 7 7 12 19 25 39 33 48 67 91 119 135 149 163 169 192 227 247 297 314 263 286 343 332 320 307 302 283 353 138 150 145 81 119 267 243 223 123 204 173 117 131 69 124 112 214 177 153 145 145 145 146
358 0 5 8 9 14 22 26 54 54 70 99 122 138 155 159 181 242 268 278 284 266 251 297 303 352 350 342 331 323 145 138 145 119 96 145 247 18 359 6 260 191 160 185 224 180 159 173 174 167 155 155 154 154
354 358 1 6 8 9 14 20 33 50 105 116 134 148 165 198 235 262 270 317 314 276 288 321 275 334 349 32 65 110 131 57 72 70 95 112 65 328 173 206 271 194 168 161 142 149 117 158 162 165 166 161 160 160
357 355 358 0 6 7 8 8 17 37 22 157 164 187 197 202 217 241 254 273 320 273 269 325 333 15 340 3 52 36 48 69 62 91 62 59 16 34 83 219 159 159 136 136 148 136 106 142 156 169 164 160 161 159
355 357 353 355 359 4 5 6 343 2 52 52 15 291 263 260 265 261 265 290 240 221 254 124 278 346 7 6 30 20 46 62 38 93 55 57 25 28 254 158 155 159 158 157 165 153 171 166 169 168 169 167 166 161
347 353 354 352 352 355 359 0 354 309 296 310 328 329 293 293 266 275 301 331 244 221 154 101 143 242 350 357 14 23 32 41 14 87 306 121 313 229 226 173 179 180 174 177 170 160 164 171 170 170 170 169 171 166
343 348 352 352 349 347 349 350 348 340 308 293 308 301 280 262 237 322 319 289 278 31 37 88 272 245 12 55 60 130 50 151 327 275 356 165 253 261 231 210 205 188 186 176 157 151 163 167 171 171 172 170 174 171
340 342 346 349 350 346 341 344 346 342 329 302 279 263 281 261 267 296 354 35 346 8 15 8 15 342 11 38 339 38 135 144 140 259 144 255 274 250 199 184 187 185 180 181 190 184 177 177 172 171 169 168 171 174
333 337 338 341 347 349 345 339 343 343 325 270 267 277 258 242 333 62 298 337 64 236 303 119 319 349 357 354 303 51 240 77 259 311 72 266 247 229 175 168 171 174 172 174 173 170 170 172 172 170 170 169 171 175
324 329 333 333 335 346 343 337 337 335 324 289 239 238 207 287 29 137 250 292 303 204 226 345 358 332 11 10 296 314 250 236 5 38 235 234 133 171 172 168 167 168 168 166 156 159 160 162 167 172 169 171 175 182
323 320 325 327 326 335 342 336 330 331 308 248 208 278 156 281 246 184 183 187 175 199 167 73 330 84 348 68 17 264 327 106 356 330 241 256 236 179 175 174 170 166 171 164 159 161 163 165 168 171 178 183 192 200
326 320 317 311 325 329 333 336 325 317 258 245 176 243 220 276 195 181 171 176 186 165 165 145 61 343 337 92 21 117 300 268 215 237 242 311 213 183 177 178 179 175 175 173 168 164 164 170 177 184 189 194 205 213
332 324 304 311 321 323 323 326 317 279 240 224 182 94 149 45 278 211 198 190 168 163 153 124 113 55 270 139 92 219 144 231 252 230 280 289 197 188 185 184 183 182 178 175 173 173 177 182 187 192 201 208 215 223
330 317 317 322 321 319 320 317 268 232 227 202 215 191 193 223 218 165 172 166 170 169 190 122 120 213 93 36 277 197 209 228 227 284 291 232 196 187 188 187 185 183 181 180 180 184 186 191 197 205 212 216 222 230
316 326 329 327 325 323 313 247 247 243 229 199 168 180 188 192 173 172 188 174 165 194 165 205 128 131 192 184 255 236 237 264 275 274 248 198 187 187 190 189 188 188 187 188 190 193 198 203 208 213 217 228 234 243
317 320 328 330 326 322 271 255 245 250 213 189 185 172 179 188 198 185 185 182 183 169 173 140 105 210 229 216 223 244 254 260 262 242 216 196 189 190 193 193 194 193 193 196 200 204 208 214 219 222 230 236 237 244
306 312 316 323 316 292 265 257 249 251 190 169 174 177 195 217 173 181 179 185 183 207 153 202 220 224 215 244 255 268 272 276 249 227 209 200 195 194 196 199 199 198 200 203 206 211 214 221 227 231 237 239 241 244
299 309 316 323 297 225 264 259 261 334 152 169 169 176 190 176 201 188 191 186 203 224 240 229 234 252 260 264 273 274 268 269 258 243 243 208 204 201 201 202 204 209 211 212 217 220 224 230 227 234 239 243 245 244
288 304 309 301 244 244 259 231 156 161 210 151 162 210 215 205 201 200 188 191 234 234 226 250 257 260 261 266 269 268 262 262 252 236 234 227 210 209 209 209 208 212 216 220 224 227 232 229 228 237 244 246 248 249
282 295 276 235 239 241 249 221 208 201 124 215 184 353 251 227 211 204 253 231 251 252 250 254 260 262 265 264 263 255 248 251 245 232 226 228 233 228 227 223 222 223 226 229 229 231 231 229 234 241 245 244 247 251
267 252 240 231 218 232 189 205 203 143 132 78 127 271 246 204 223 109 254 258 257 299 307 299 289 285 277 271 262 258 250 246 240 229 227 227 228 225 225 229 232 235 238 240 237 236 233 234 240 244 247 248 250 254
220 233 214 244 195 117 190 318 344 97 242 190 166 273 244 154 358 249 236 274 318 349 350 347 342 319 291 288 277 270 260 246 240 237 232 230 230 228 229 229 230 232 233 235 234 234 236 238 242 246 249 251 254 258
220 207 194 208 178 165 188 176 208 207 163 189 227 146 136 97 55 247 231 243 322 353 360 360 356 360 8 349 328 294 264 267 254 246 240 237 237 239 242 241 241 239 238 239 239 239 241 244 247 250 252 255 258 261
233 241 205 200 169 148 102 106 135 118 183 207 179 148 120 204 246 253 244 244 319 349 357 356 353 350 346 343 335 328 307 275 258 255 249 246 244 242 244 247 250 255 249 247 246 246 248 250 252 255 258 259 260 263
222 183 189 174 173 185 153 170 188 214 220 164 134 182 188 200 233 239 234 250 286 314 318 320 324 320 315 308 307 307 302 285 267 252 251 244 237 238 239 239 242 240 239 242 244 245 249 255 257 258 259 261 263 262
199 175 161 132 144 196 219 203 221 209 177 175 176 242 243 236 264 301 310 306 303 305 308 311 312 311 307 297 294 295 296 290 277 262 256 255 253 251 254 252 248 246 242 243 247 250 255 261 262 261 260 261 262 264
185 171 143 157 175 222 223 201 224 220 217 225 255 275 272 275 289 299 301 300 302 307 312 321 331 340 342 332 319 301 292 289 282 271 267 265 276 276 267 255 247 245 243 244 248 253 257 262 266 267 266 268 270 273
155 172 136 174 235 239 231 253 269 268 263 259 253 258 269 294 297 313 341 351 345 2 344 335 333 328 327 325 324 319 303 284 279 268 256 253 251 252 256 260 237 227 225 232 242 253 263 270 273 273 271 271 274 277
156 173 148 177 250 262 289 249 268 264 266 272 267 264 287 288 286 354 2 2 357 348 342 342 343 343 338 331 323 315 306 290 274 269 270 272 263 246 238 234 227 217 216 224 241 261 275 281 283 282 281 280 280 282
124 146 164 311 282 238 212 272 260 309 249 262 252 258 262 275 261 348 4 353 347 349 356 357 358 0 360 359 356 347 335 323 306 280 257 275 285 266 231 214 207 206 219 250 272 280 289 293 294 293 290 288 287 288
Wind_Speed_850mb
68 73 75 80 85 90 79 75 61 46 24 23 32 62 75 76 61 42 37 27 7 2 14 9 9 8 6 4 4 12 14 7 7 9 6 7 4 11 7 8 16 23 18 15 5 7 16 7 9 19 7 11 27 37
63 68 72 74 82 80 72 79 64 50 24 23 25 60 63 64 51 34 26 19 12 8 14 17 8 4 2 5 10 29 8 10 17 6 4 6 6 6 0 4 7 2 10 14 12 9 5 3 10 5 13 31 30 38
58 62 68 68 74 73 71 70 64 60 43 43 43 43 51 47 44 24 8 7 8 12 9 6 10 12 10 21 18 9 10 11 8 10 7 4 11 2 8 7 4 4 6 7 8 4 5 8 13 18 28 35 40 46
52 56 59 64 64 60 48 56 53 50 45 39 38 39 39 30 26 12 17 16 11 12 3 5 10 4 16 17 13 5 6 6 19 13 4 5 5 2 2 2 6 3 8 11 5 5 9 10 22 36 40 45 49 46
46 49 51 55 58 59 47 36 35 36 30 30 30 30 28 28 19 11 16 23 23 12 5 11 12 15 17 11 5 1 6 7 7 5 4 4 3 3 2 4 4 10 11 10 10 31 8 17 60 55 59 53 51 53
45 43 44 46 49 52 42 32 22 17 20 18 16 14 16 14 14 13 9 7 15 13 8 5 5 7 7 7 6 6 5 7 8 9 4 5 3 4 4 6 2 6 10 4 5 41 4 49 59 47 61 63 55 49
46 43 39 39 41 43 48 25 22 17 13 10 16 18 21 20 18 14 9 12 26 10 7 7 7 3 8 5 5 8 11 8 8 8 6 2 4 8 3 5 8 20 20 25 36 42 35 42 26 48 47 48 52 54
43 44 39 35 35 37 37 39 14 13 17 22 16 14 22 24 28 23 28 20 9 9 6 3 7 8 9 7 5 9 5 6 14 7 4 4 4 4 7 1 21 27 32 44 46 16 20 47 49 52 52 53 50 48
39 43 43 36 31 31 32 31 30 18 17 18 23 26 12 9 8 8 11 11 6 11 5 5 7 6 12 9 5 6 9 4 5 4 1 5 3 9 14 17 48 55 41 38 31 20 41 51 68 62 57 55 48 45
39 39 43 40 34 28 26 28 27 25 22 27 31 7 7 7 8 12 8 2 3 4 6 4 1 3 5 4 1 3 5 3 0 4 4 2 8 15 19 22 41 58 43 50 51 40 53 62 69 64 61 52 43 40
39 38 40 40 41 34 24 25 26 25 18 10 6 6 11 7 5 5 4 10 13 8 11 8 9 4 16 6 3 5 1 2 1 6 6 4 7 8 20 33 44 55 39 52 44 43 52 61 64 58 52 46 40 35
36 37 38 39 41 40 29 27 26 24 13 11 13 13 7 4 2 8 3 7 5 6 4 1 3 3 6 6 2 1 2 2 7 3 3 7 8 9 32 40 45 46 44 51 30 37 44 47 48 49 47 45 40 34
35 37 37 38 36 42 35 29 28 26 23 12 7 5 2 3 7 9 7 7 4 6 3 2 1 3 3 4 4 3 3 3 2 4 7 10 4 22 38 46 48 39 40 38 37 40 44 47 44 40 40 37 33 29
35 34 37 37 33 41 40 33 27 24 11 6 6 7 6 6 8 8 7 7 5 4 5 2 5 3 3 3 2 4 0 1 4 4 12 6 13 36 47 52 57 51 45 41 40 45 46 45 43 39 35 32 28 25
38 34 34 24 38 42 40 38 28 19 7 7 5 7 7 2 4 6 8 5 8 12 7 4 3 2 4 5 2 4 1 7 10 9 6 7 13 41 56 55 54 52 51 47 45 46 44 41 39 37 34 28 27 26
44 31 16 32 40 41 41 41 26 10 8 7 7 7 4 3 4 10 18 11 20 16 9 3 4 7 5 6 4 12 9 10 7 6 11 14 21 45 57 55 50 46 45 47 46 45 43 42 38 33 31 29 27 22
50 17 39 40 40 42 42 31 9 9 10 8 4 10 13 5 2 6 17 20 30 18 5 5 6 16 3 5 6 8 10 7 9 16 18 16 27 42 48 46 46 45 46 47 47 45 41 40 39 36 33 28 25 22
48 45 47 45 39 37 27 6 8 7 6 7 6 10 10 7 8 9 13 26 20 12 12 8 12 5 11 10 8 8 28 27 26 19 13 22 32 39 45 48 49 49 50 49 46 44 44 42 38 32 28 26 23 23
49 50 51 43 28 18 8 6 7 5 4 4 5 12 7 5 11 12 18 30 20 9 5 7 4 7 8 10 10 12 19 19 13 16 23 33 40 44 46 47 46 49 50 49 48 44 37 31 26 30 31 27 24 28
43 46 39 41 25 10 9 6 6 5 3 8 7 10 4 3 10 16 19 26 21 8 3 6 11 12 17 14 13 18 21 23 26 22 32 42 46 48 50 50 51 48 49 48 45 42 41 40 36 31 30 30 30 26
44 41 44 39 14 18 11 6 4 1 4 5 7 9 3 8 7 13 15 24 17 14 7 33 39 35 30 28 26 27 29 30 32 33 26 42 47 48 49 50 49 51 52 51 51 49 46 38 26 31 35 33 29 29
44 40 43 22 12 9 7 6 2 2 1 3 10 6 6 4 7 8 12 18 18 25 31 35 47 47 44 44 42 38 34 32 29 35 34 31 44 54 58 60 62 62 61 57 51 47 40 30 31 37 38 31 35 36
37 28 13 12 9 8 4 6 4 3 2 4 3 1 3 2 3 7 10 18 21 26 40 51 53 52 49 45 39 37 36 33 32 37 38 31 29 41 49 53 56 56 55 52 47 44 40 36 40 42 39 39 41 41
24 10 9 7 11 5 6 4 3 4 4 2 2 5 3 3 1 1 7 12 15 23 26 31 36 41 42 44 44 38 36 35 34 38 42 43 38 37 41 46 49 50 48 44 44 44 43 44 44 46 45 43 42 42
8 11 9 9 8 5 3 2 3 2 6 5 3 5 3 1 0 4 7 8 9 17 24 25 21 20 29 31 30 27 30 39 43 45 48 49 45 41 42 44 50 52 51 52 53 53 52 50 50 49 46 46 45 43
8 13 13 9 5 9 10 7 9 12 6 6 9 2 3 4 1 12 7 4 8 16 26 27 30 27 22 20 21 19 25 25 35 48 49 51 51 51 48 46 47 50 52 53 53 53 52 50 49 48 48 46 44 44
10 11 13 12 8 10 4 3 3 4 8 11 7 7 5 3 10 8 6 5 4 10 16 21 27 31 33 31 23 17 21 27 32 36 43 48 47 49 49 48 44 38 37 38 41 44 45 45 45 45 45 44 44 44
22 17 11 17 11 9 7 4 9 12 8 11 16 8 13 15 9 3 6 7 11 18 27 32 39 46 46 42 35 28 24 24 30 36 37 41 45 47 49 50 46 42 40 37 34 35 36 38 40 42 43 43 42 41
9 13 18 5 4 6 12 12 8 7 10 17 7 7 9 10 7 9 21 26 34 39 44 47 44 41 39 38 34 32 30 26 25 30 36 39 37 36 36 38 41 44 45 43 40 37 36 37 39 40 41 42 41 42
13 23 7 7 9 10 6 13 4 6 11 16 12 13 17 25 32 35 41 45 44 36 28 23 23 26 29 30 25 24 27 26 27 29 33 32 27 22 21 24 26 31 37 40 39 38 38 39 39 42 41 41 40 41
15 19 6 8 5 4 6 9 16 21 18 15 25 25 25 23 22 17 13 11 10 9 16 22 24 28 28 28 27 25 21 23 21 24 30 34 34 28 20 17 24 27 29 30 30 30 32 35 37 38 40 41 41 42
12 12 5 4 3 3 7 3 5 5 5 5 6 7 8 8 9 6 10 13 14 22 29 30 30 28 29 29 29 29 28 26 29 28 24 23 28 33 28 18 18 20 20 19 18 18 21 24 28 32 35 37 38 41
8 7 4 1 2 2 4 3 3 4 6 5 6 5 4 4 7 5 12 13 20 25 24 25 25 27 27 27 27 26 26 23 21 20 20 15 17 18 27 28 23 19 16 13 15 18 21 25 29 31 33 35 37 38
Wind_Direction_850mb
358 360 2 4 7 9 6 16 19 25 48 92 136 156 159 166 163 164 160 177 186 268 294 253 282 245 213 193 183 153 131 174 165 176 182 198 185 222 235 177 172 176 172 200 131 146 251 158 115 184 151 104 145 143
1 3 5 7 10 14 20 22 23 30 66 114 130 160 165 171 162 166 184 220 249 336 288 299 306 39 144 280 219 188 183 175 173 134 93 113 254 211 243 205 4 215 205 166 195 202 47 62 53 128 155 147 144 148
359 5 5 9 11 18 27 25 32 45 71 97 124 143 154 171 180 175 197 240 295 305 287 298 316 306 323 327 297 232 201 154 147 116 162 157 239 190 165 214 128 320 327 103 128 181 148 132 115 137 144 139 143 146
359 2 7 7 12 19 25 39 33 48 67 91 119 135 149 163 169 192 227 247 297 314 263 286 343 332 320 307 302 283 353 138 150 145 81 119 267 243 223 123 204 173 117 131 69 124 112 214 177 153 145 145 145 146
358 0 5 8 9 14 22 26 54 54 70 99 122 138 155 159 181 242 268 278 284 266 251 297 303 352 350 342 331 323 145 138 145 119 96 145 247 18 359 6 260 191 160 185 224 180 159 173 174 167 155 155 154 154
354 358 1 6 8 9 14 20 33 50 105 116 134 148 165 198 235 262 270 317 314 276 288 321 275 334 349 32 65 110 131 57 72 70 95 112 65 328 173 206 271 194 168 161 142 149 117 158 162 165 166 161 160 160
357 355 358 0 6 7 8 8 17 37 22 157 164 187 197 202 217 241 254 273 320 273 269 325 333 15 340 3 52 36 48 69 62 91 62 59 16 34 83 219 159 159 136 136 148 136 106 142 156 169 164 160 161 159
355 357 353 355 359 4 5 6 343 2 52 52 15 291 263 260 265 261 265 290 240 221 254 124 278 346 7 6 30 20 46 62 38 93 55 57 25 28 254 158 155 159 158 157 165 153 171 166 169 168 169 167 166 161
347 353 354 352 352 355 359 0 354 309 296 310 328 329 293 293 266 275 301 331 244 221 154 101 143 242 350 357 14 23 32 41 14 87 306 121 313 229 226 173 179 180 174 177 170 160 164 171 170 170 170 169 171 166
343 348 352 352 349 347 349 350 348 340 308 293 308 301 280 262 237 322 319 289 278 31 37 88 272 245 12 55 60 130 50 151 327 275 356 165 253 261 231 210 205 188 186 176 157 151 163 167 171 171 172 170 174 171
340 342 346 349 350 346 341 344 346 342 329 302 279 263 281 261 267 296 354 35 346 8 15 8 15 342 11 38 339 38 135 144 140 259 144 255 274 250 199 184 187 185 180 181 190 184 177 177 172 171 169 168 171 174
333 337 338 341 347 349 345 339 343 343 325 270 267 277 258 242 333 62 298 337 64 236 303 119 319 349 357 354 303 51 240 77 259 311 72 266 247 229 175 168 171 174 172 174 173 170 170 172 172 170 170 169 171 175
324 329 333 333 335 346 343 337 337 335 324 289 239 238 207 287 29 137 250 292 303 204 226 345 358 332 11 10 296 314 250 236 5 38 235 234 133 171 172 168 167 168 168 166 156 159 160 162 167 172 169 171 175 182
323 320 325 327 326 335 342 336 330 331 308 248 208 278 156 281 246 184 183 187 175 199 167 73 330 84 348 68 17 264 327 106 356 330 241 256 236 179 175 174 170 166 171 164 159 161 163 165 168 171 178 183 192 200
326 320 317 311 325 329 333 336 325 317 258 245 176 243 220 276 195 181 171 176 186 165 165 145 61 343 337 92 21 117 300 268 215 237 242 311 213 183 177 178 179 175 175 173 168 164 164 170 177 184 189 194 205 213
332 324 304 311 321 323 323 326 317 279 240 224 182 94 149 45 278 211 198 190 168 163 153 124 113 55 270 139 92 219 144 231 252 230 280 289 197 188 185 184 183 182 178 175 173 173 177 182 187 192 201 208 215 223
330 317 317 322 321 319 320 317 268 232 227 202 215 191 193 223 218 165 172 166 170 169 190 122 120 213 93 36 277 197 209 228 227 284 291 232 196 187 188 187 185 183 181 180 180 184 186 191 197 205 212 216 222 230
316 326 329 327 325 323 313 247 247 243 229 199 168 180 188 192 173 172 188 174 165 194 165 205 128 131 192 184 255 236 237 264 275 274 248 198 187 187 190 189 188 188 187 188 190 193 198 203 208 213 217 228 234 243
317 320 328 330 326 322 271 255 245 250 213 189 185 172 179 188 198 185 185 182 183 169 173 140 105 210 229 216 223 244 254 260 262 242 216 196 189 190 193 193 194 193 193 196 200 204 208 214 219 222 230 236 237 244
306 312 316 323 316 292 265 257 249 251 190 169 174 177 195 217 173 181 179 185 183 207 153 202 220 224 215 244 255 268 272 276 249 227 209 200 195 194 196 199 199 198 200 203 206 211 214 221 227 231 237 239 241 244
299 309 316 323 297 225 264 259 261 334 152 169 169 176 190 176 201 188 191 186 203 224 240 229 234 252 260 264 273 274 268 269 258 243 243 208 204 201 201 202 204 209 211 212 217 220 224 230 227 234 239 243 245 244
288 304 309 301 244 244 259 231 156 161 210 151 162 210 215 205 201 200 188 191 234 234 226 250 257 260 261 266 269 268 262 262 252 236 234 227 210 209 209 209 208 212 216 220 224 227 232 229 228 237 244 246 248 249
282 295 276 235 239 241 249 221 208 201 124 215 184 353 251 227 211 204 253 231 251 252 250 254 260 262 265 264 263 255 248 251 245 232 226 228 233 228 227 223 222 223 226 229 229 231 231 229 234 241 245 244 247 251
267 252 240 231 218 232 189 205 203 143 132 78 127 271 246 204 223 109 254 258 257 299 307 299 289 285 277 271 262 258 250 246 240 229 227 227 228 225 225 229 232 235 238 240 237 236 233 234 240 244 247 248 250 254
220 233 214 244 195 117 190 318 344 97 242 190 166 273 244 154 358 249 236 274 318 349 350 347 342 319 291 288 277 270 260 246 240 237 232 230 230 228 229 229 230 232 233 235 234 234 236 238 242 246 249 251 254 258
220 207 194 208 178 165 188 176 208 207 163 189 227 146 136 97 55 247 231 243 322 353 360 360 356 360 8 349 328 294 264 267 254 246 240 237 237 239 242 241 241 239 238 239 239 239 241 244 247 250 252 255 258 261
233 241 205 200 169 148 102 106 135 118 183 207 179 148 120 204 246 253 244 244 319 349 357 356 353 350 346 343 335 328 307 275 258 255 249 246 244 242 244 247 250 255 249 247 246 246 248 250 252 255 258 259 260 263
222 183 189 174 173 185 153 170 188 214 220 164 134 182 188 200 233 239 234 250 286 314 318 320 324 320 315 308 307 307 302 285 267 252 251 244 237 238 239 239 242 240 239 242 244 245 249 255 257 258 259 261 263 262
199 175 161 132 144 196 219 203 221 209 177 175 176 242 243 236 264 301 310 306 303 305 308 311 312 311 307 297 294 295 296 290 277 262 256 255 253 251 254 252 248 246 242 243 247 250 255 261 262 261 260 261 262 264
185 171 143 157 175 222 223 201 224 220 217 225 255 275 272 275 289 299 301 300 302 307 312 321 331 340 342 332 319 301 292 289 282 271 267 265 276 276 267 255 247 245 243 244 248 253 257 262 266 267 266 268 270 273
155 172 136 174 235 239 231 253 269 268 263 259 253 258 269 294 297 313 341 351 345 2 344 335 333 328 327 325 324 319 303 284 279 268 256 253 251 252 256 260 237 227 225 232 242 253 263 270 273 273 271 271 274 277
156 173 148 177 250 262 289 249 268 264 266 272 267 264 287 288 286 354 2 2 357 348 342 342 343 343 338 331 323 315 306 290 274 269 270 272 263 246 238 234 227 217 216 224 241 261 275 281 283 282 281 280 280 282
124 146 164 311 282 238 212 272 260 309 249 262 252 258 262 275 261 348 4 353 347 349 356 357 358 0 360 359 356 347 335 323 306 280 257 275 285 266 231 214 207 206 219 250 272 280 289 293 294 293 290 288 287 288